Zurück zum Katalog

STARLINK-36578

AktivKommunikationSSO
NORAD 67571·PAYLOAD·🇺🇸 United States

Gestartet Jan 25, 2026 von Vandenberg Space Force Base

Loading…

Nächste Überflüge (nächste 24 Stunden)

TLE

AktuellSource: CelesTrak SupGP

Epoche: Sep 15, 2026, 03:57 UTC

1 67571C 26016L   26258.16506944 -.00011486  00000+0 -35651-3 0  2581
2 67571  97.2851 316.8434 0001027  85.7539 105.0360 15.33449526    14

Verfolge STARLINK-36578 in Echtzeit mit AllMySat

Download on the App Store